contact:dominique.lefevre@mio.osupytheas.fr, maurice.libes@osupytheas.fr, didier.mallarino@osupytheas.fr
Project:EMSO http://www.emso-fr.org/EMSO-France
Depth: 2436.0 m
Title:EMSO Ligure Ouest : Data MII capteur MICROCAT
DateTime_Computer,Latitude,Longitude,Temperature,Conductivity,Pressure,DateTime_Instrument
DateTime_Computer,Latitude,Longitude,degC,S m-1,dbar,DateTime_Instrument
2024-04-05T00:00:48Z,42.805,6.029,13.3060,4.60187,2470.88,2024-4-05T02:03:27Z
2024-04-05T00:03:51Z,42.805,6.029,13.3056,4.60183,2470.894,2024-4-05T02:06:30Z
2024-04-05T00:06:54Z,42.805,6.029,13.3056,4.60170,2470.857,2024-4-05T02:09:33Z
2024-04-05T00:09:57Z,42.805,6.029,13.3051,4.60181,2470.857,2024-4-05T02:12:36Z
2024-04-05T00:13:00Z,42.805,6.029,13.3051,4.60167,2470.904,2024-4-05T02:15:39Z
2024-04-05T00:16:03Z,42.805,6.029,13.3060,4.60165,2470.904,2024-4-05T02:18:42Z
2024-04-05T00:19:06Z,42.805,6.029,13.3055,4.60186,2470.94,2024-4-05T02:21:46Z
2024-04-05T00:22:09Z,42.805,6.029,13.3057,4.60188,2470.917,2024-4-05T02:24:49Z
2024-04-05T00:25:12Z,42.805,6.029,13.3066,4.60182,2470.894,2024-4-05T02:27:52Z
2024-04-05T00:28:16Z,42.805,6.029,13.3055,4.60170,2470.894,2024-4-05T02:30:55Z
2024-04-05T00:31:19Z,42.805,6.029,13.3053,4.60175,2470.904,2024-4-05T02:33:58Z
2024-04-05T00:34:22Z,42.805,6.029,13.3054,4.60172,2470.904,2024-4-05T02:37:01Z
2024-04-05T00:37:25Z,42.805,6.029,13.3058,4.60173,2470.904,2024-4-05T02:40:04Z
2024-04-05T00:40:28Z,42.805,6.029,13.3059,4.60181,2470.94,2024-4-05T02:43:07Z
2024-04-05T00:43:31Z,42.805,6.029,13.3050,4.60185,2470.904,2024-4-05T02:46:10Z
2024-04-05T00:46:34Z,42.805,6.029,13.3057,4.60185,2470.88,2024-4-05T02:49:13Z
2024-04-05T00:49:37Z,42.805,6.029,13.3061,4.60182,2470.927,2024-4-05T02:52:16Z
2024-04-05T00:52:40Z,42.805,6.029,13.3049,4.60187,2470.927,2024-4-05T02:55:19Z
2024-04-05T00:55:43Z,42.805,6.029,13.3061,4.60181,2470.927,2024-4-05T02:58:22Z
2024-04-05T00:58:46Z,42.805,6.029,13.3066,4.60173,2470.94,2024-4-05T03:01:26Z
2024-04-05T01:01:49Z,42.805,6.029,13.3054,4.60186,2470.927,2024-4-05T03:04:29Z
2024-04-05T01:04:52Z,42.805,6.029,13.3053,4.60188,2470.94,2024-4-05T03:07:32Z
2024-04-05T01:07:55Z,42.805,6.029,13.3051,4.60185,2470.94,2024-4-05T03:10:35Z
2024-04-05T01:10:59Z,42.805,6.029,13.3058,4.60183,2470.927,2024-4-05T03:13:38Z
2024-04-05T01:14:02Z,42.805,6.029,13.3057,4.60181,2470.904,2024-4-05T03:16:41Z
2024-04-05T01:17:05Z,42.805,6.029,13.3055,4.60181,2470.927,2024-4-05T03:19:44Z
2024-04-05T01:20:08Z,42.805,6.029,13.3053,4.60173,2470.927,2024-4-05T03:22:47Z
2024-04-05T01:23:11Z,42.805,6.029,13.3053,4.60183,2470.987,2024-4-05T03:25:50Z
2024-04-05T01:26:14Z,42.805,6.029,13.3057,4.60186,2470.964,2024-4-05T03:28:53Z
2024-04-05T01:29:17Z,42.805,6.029,13.3061,4.60192,2470.964,2024-4-05T03:31:56Z
2024-04-05T01:32:20Z,42.805,6.029,13.3051,4.60190,2470.95,2024-4-05T03:34:59Z
2024-04-05T01:35:23Z,42.805,6.029,13.3062,4.60198,2470.987,2024-4-05T03:38:02Z
2024-04-05T01:38:26Z,42.805,6.029,13.3055,4.60188,2470.964,2024-4-05T03:41:06Z
2024-04-05T01:41:29Z,42.805,6.029,13.3054,4.60164,2470.927,2024-4-05T03:44:09Z
2024-04-05T01:44:32Z,42.805,6.029,13.3061,4.60178,2470.973,2024-4-05T03:47:12Z
2024-04-05T01:47:35Z,42.805,6.029,13.3061,4.60195,2470.997,2024-4-05T03:50:15Z
2024-04-05T01:50:39Z,42.805,6.029,13.3061,4.60185,2471.01,2024-4-05T03:53:18Z
2024-04-05T01:53:42Z,42.805,6.029,13.3062,4.60191,2470.95,2024-4-05T03:56:21Z
2024-04-05T01:56:45Z,42.805,6.029,13.3053,4.60178,2470.95,2024-4-05T03:59:24Z
2024-04-05T01:59:48Z,42.805,6.029,13.3055,4.60189,2470.973,2024-4-05T04:02:27Z
2024-04-05T02:02:51Z,42.805,6.029,13.3071,4.60180,2470.983,2024-4-05T04:05:30Z
2024-04-05T02:05:54Z,42.805,6.029,13.3058,4.60174,2470.997,2024-4-05T04:08:33Z
2024-04-05T02:08:57Z,42.805,6.029,13.3054,4.60181,2470.95,2024-4-05T04:11:36Z
2024-04-05T02:12:00Z,42.805,6.029,13.3059,4.60185,2471.02,2024-4-05T04:14:39Z
2024-04-05T02:15:03Z,42.805,6.029,13.3061,4.60190,2470.973,2024-4-05T04:17:42Z
2024-04-05T02:18:06Z,42.805,6.029,13.3052,4.60176,2470.997,2024-4-05T04:20:45Z
2024-04-05T02:21:09Z,42.805,6.029,13.3049,4.60192,2471.01,2024-4-05T04:23:49Z
2024-04-05T02:24:12Z,42.805,6.029,13.3058,4.60190,2470.997,2024-4-05T04:26:52Z
2024-04-05T02:27:16Z,42.805,6.029,13.3050,4.60177,2471.034,2024-4-05T04:29:55Z
2024-04-05T02:30:19Z,42.805,6.029,13.3055,4.60175,2470.987,2024-4-05T04:32:58Z
2024-04-05T02:33:22Z,42.805,6.029,13.3056,4.60185,2470.997,2024-4-05T04:36:01Z
2024-04-05T02:36:25Z,42.805,6.029,13.3070,4.60182,2470.973,2024-4-05T04:39:04Z
2024-04-05T02:39:28Z,42.805,6.029,13.3057,4.60170,2470.987,2024-4-05T04:42:07Z
2024-04-05T02:42:31Z,42.805,6.029,13.3052,4.60182,2471.01,2024-4-05T04:45:10Z
2024-04-05T02:45:34Z,42.805,6.029,13.3060,4.60183,2471.034,2024-4-05T04:48:13Z
2024-04-05T02:48:37Z,42.805,6.029,13.3051,4.60180,2470.997,2024-4-05T04:51:16Z
2024-04-05T02:51:40Z,42.805,6.029,13.3048,4.60172,2470.997,2024-4-05T04:54:19Z
2024-04-05T02:54:43Z,42.805,6.029,13.3057,4.60176,2470.997,2024-4-05T04:57:22Z
2024-04-05T02:57:46Z,42.805,6.029,13.3058,4.60190,2471.034,2024-4-05T05:00:25Z
2024-04-05T03:00:49Z,42.805,6.029,13.3055,4.60180,2471.01,2024-4-05T05:03:29Z
2024-04-05T03:03:52Z,42.805,6.029,13.3061,4.60189,2471.02,2024-4-05T05:06:32Z
2024-04-05T03:06:55Z,42.805,6.029,13.3058,4.60175,2471.02,2024-4-05T05:09:35Z
2024-04-05T03:09:59Z,42.805,6.029,13.3052,4.60188,2471.043,2024-4-05T05:12:38Z
2024-04-05T03:13:02Z,42.805,6.029,13.3048,4.60175,2471.02,2024-4-05T05:15:41Z
2024-04-05T03:16:05Z,42.805,6.029,13.3061,4.60192,2471.034,2024-4-05T05:18:44Z
2024-04-05T03:19:08Z,42.805,6.029,13.3063,4.60188,2470.997,2024-4-05T05:21:47Z
2024-04-05T03:22:11Z,42.805,6.029,13.3056,4.60193,2471.081,2024-4-05T05:24:50Z
2024-04-05T03:25:14Z,42.805,6.029,13.3061,4.60161,2471.02,2024-4-05T05:27:53Z
2024-04-05T03:28:17Z,42.805,6.029,13.3075,4.60188,2471.043,2024-4-05T05:30:56Z
2024-04-05T03:31:20Z,42.805,6.029,13.3056,4.60178,2471.034,2024-4-05T05:33:59Z
2024-04-05T03:34:23Z,42.805,6.029,13.3056,4.60182,2471.01,2024-4-05T05:37:02Z
2024-04-05T03:37:26Z,42.805,6.029,13.3065,4.60188,2471.043,2024-4-05T05:40:05Z
2024-04-05T03:40:29Z,42.805,6.029,13.3054,4.60199,2470.997,2024-4-05T05:43:09Z
2024-04-05T03:43:32Z,42.805,6.029,13.3058,4.60178,2471.067,2024-4-05T05:46:12Z
2024-04-05T03:46:35Z,42.805,6.029,13.3052,4.60170,2471.043,2024-4-05T05:49:15Z
2024-04-05T03:49:39Z,42.805,6.029,13.3052,4.60175,2471.02,2024-4-05T05:52:18Z
2024-04-05T03:52:42Z,42.805,6.029,13.3057,4.60172,2471.043,2024-4-05T05:55:21Z
2024-04-05T03:55:45Z,42.805,6.029,13.3056,4.60164,2471.034,2024-4-05T05:58:24Z
2024-04-05T03:58:48Z,42.805,6.029,13.3054,4.60183,2471.081,2024-4-05T06:01:27Z
2024-04-05T04:01:51Z,42.805,6.029,13.3056,4.60191,2471.09,2024-4-05T06:04:30Z
2024-04-05T04:04:54Z,42.805,6.029,13.3061,4.60193,2471.067,2024-4-05T06:07:33Z
2024-04-05T04:07:57Z,42.805,6.029,13.3059,4.60191,2471.043,2024-4-05T06:10:36Z
2024-04-05T04:11:00Z,42.805,6.029,13.3053,4.60175,2471.081,2024-4-05T06:13:39Z
2024-04-05T04:14:03Z,42.805,6.029,13.3069,4.60173,2471.067,2024-4-05T06:16:42Z
2024-04-05T04:17:06Z,42.805,6.029,13.3057,4.60170,2471.043,2024-4-05T06:19:45Z
2024-04-05T04:20:09Z,42.805,6.029,13.3056,4.60176,2471.057,2024-4-05T06:22:49Z
2024-04-05T04:23:12Z,42.805,6.029,13.3051,4.60160,2471.067,2024-4-05T06:25:52Z
2024-04-05T04:26:15Z,42.805,6.029,13.3058,4.60175,2471.043,2024-4-05T06:28:55Z
2024-04-05T04:29:19Z,42.805,6.029,13.3057,4.60197,2471.067,2024-4-05T06:31:58Z
2024-04-05T04:32:22Z,42.805,6.029,13.3057,4.60163,2471.057,2024-4-05T06:35:01Z
2024-04-05T04:35:25Z,42.805,6.029,13.3059,4.60185,2471.104,2024-4-05T06:38:04Z
2024-04-05T04:38:28Z,42.805,6.029,13.3058,4.60185,2471.104,2024-4-05T06:41:07Z
2024-04-05T04:41:31Z,42.805,6.029,13.3055,4.60175,2471.104,2024-4-05T06:44:10Z
2024-04-05T04:44:34Z,42.805,6.029,13.3056,4.60179,2471.043,2024-4-05T06:47:13Z
2024-04-05T04:47:37Z,42.805,6.029,13.3060,4.60183,2471.067,2024-4-05T06:50:16Z
2024-04-05T04:50:40Z,42.805,6.029,13.3047,4.60181,2471.081,2024-4-05T06:53:19Z
2024-04-05T04:53:43Z,42.805,6.029,13.3056,4.60162,2471.067,2024-4-05T06:56:22Z
2024-04-05T04:56:46Z,42.805,6.029,13.3054,4.60178,2471.09,2024-4-05T06:59:25Z
2024-04-05T04:59:49Z,42.805,6.029,13.3053,4.60179,2471.057,2024-4-05T07:02:29Z
2024-04-05T05:02:52Z,42.805,6.029,13.3064,4.60174,2471.081,2024-4-05T07:05:32Z
2024-04-05T05:05:55Z,42.805,6.029,13.3065,4.60175,2471.081,2024-4-05T07:08:35Z
2024-04-05T05:08:59Z,42.805,6.029,13.3066,4.60172,2471.043,2024-4-05T07:11:38Z
2024-04-05T05:12:02Z,42.805,6.029,13.3054,4.60175,2471.067,2024-4-05T07:14:41Z
2024-04-05T05:15:05Z,42.805,6.029,13.3052,4.60182,2471.067,2024-4-05T07:17:44Z
2024-04-05T05:18:08Z,42.805,6.029,13.3053,4.60204,2471.067,2024-4-05T07:20:47Z
2024-04-05T05:21:11Z,42.805,6.029,13.3058,4.60185,2471.043,2024-4-05T07:23:50Z
2024-04-05T05:24:14Z,42.805,6.029,13.3059,4.60189,2471.067,2024-4-05T07:26:53Z
2024-04-05T05:27:17Z,42.805,6.029,13.3055,4.60170,2471.067,2024-4-05T07:29:56Z
2024-04-05T05:30:20Z,42.805,6.029,13.3057,4.60167,2471.076,2024-4-05T07:32:59Z
2024-04-05T05:33:23Z,42.805,6.029,13.3050,4.60161,2471.081,2024-4-05T07:36:02Z
2024-04-05T05:36:26Z,42.805,6.029,13.3061,4.60180,2471.081,2024-4-05T07:39:05Z
2024-04-05T05:39:29Z,42.805,6.029,13.3061,4.60184,2471.09,2024-4-05T07:42:09Z
2024-04-05T05:42:32Z,42.805,6.029,13.3054,4.60167,2471.09,2024-4-05T07:45:12Z
2024-04-05T05:45:35Z,42.805,6.029,13.3051,4.60175,2471.081,2024-4-05T07:48:15Z
2024-04-05T05:48:38Z,42.805,6.029,13.3055,4.60169,2471.043,2024-4-05T07:51:18Z
2024-04-05T05:51:42Z,42.805,6.029,13.3051,4.60172,2471.127,2024-4-05T07:54:21Z
2024-04-05T05:54:45Z,42.805,6.029,13.3066,4.60186,2471.081,2024-4-05T07:57:24Z
2024-04-05T05:57:48Z,42.805,6.029,13.3049,4.60180,2471.104,2024-4-05T08:00:27Z
2024-04-05T06:00:51Z,42.805,6.029,13.3061,4.60182,2471.067,2024-4-05T08:03:30Z
2024-04-05T06:03:54Z,42.805,6.029,13.3057,4.60183,2471.057,2024-4-05T08:06:33Z
2024-04-05T06:06:57Z,42.805,6.029,13.3057,4.60163,2471.081,2024-4-05T08:09:36Z
2024-04-05T06:10:00Z,42.805,6.029,13.3056,4.60186,2471.081,2024-4-05T08:12:39Z
2024-04-05T06:13:03Z,42.805,6.029,13.3057,4.60195,2471.067,2024-4-05T08:15:42Z
2024-04-05T06:16:06Z,42.805,6.029,13.3063,4.60189,2471.057,2024-4-05T08:18:45Z
2024-04-05T06:19:09Z,42.805,6.029,13.3054,4.60184,2471.081,2024-4-05T08:21:48Z
2024-04-05T06:22:12Z,42.805,6.029,13.3058,4.60186,2471.043,2024-4-05T08:24:52Z
2024-04-05T06:25:15Z,42.805,6.029,13.3051,4.60172,2471.034,2024-4-05T08:27:55Z
2024-04-05T06:28:18Z,42.805,6.029,13.3060,4.60180,2471.067,2024-4-05T08:30:58Z
2024-04-05T06:31:22Z,42.805,6.029,13.3054,4.60170,2471.057,2024-4-05T08:34:01Z
2024-04-05T06:34:25Z,42.805,6.029,13.3054,4.60164,2471.01,2024-4-05T08:37:04Z
2024-04-05T06:37:28Z,42.805,6.029,13.3056,4.60178,2471.043,2024-4-05T08:40:07Z
2024-04-05T06:40:31Z,42.805,6.029,13.3053,4.60175,2470.997,2024-4-05T08:43:10Z
2024-04-05T06:43:34Z,42.805,6.029,13.3057,4.60172,2471.043,2024-4-05T08:46:13Z
2024-04-05T06:46:37Z,42.805,6.029,13.3051,4.60183,2471.043,2024-4-05T08:49:16Z
2024-04-05T06:49:40Z,42.805,6.029,13.3051,4.60169,2471.02,2024-4-05T08:52:19Z
2024-04-05T06:52:43Z,42.805,6.029,13.3049,4.60166,2471.034,2024-4-05T08:55:22Z
2024-04-05T06:55:46Z,42.805,6.029,13.3052,4.60172,2471.02,2024-4-05T08:58:25Z
2024-04-05T06:58:49Z,42.805,6.029,13.3048,4.60173,2471.034,2024-4-05T09:01:29Z
2024-04-05T07:01:52Z,42.805,6.029,13.3049,4.60158,2471.034,2024-4-05T09:04:32Z
2024-04-05T07:04:55Z,42.805,6.029,13.3056,4.60176,2471.043,2024-4-05T09:07:35Z
2024-04-05T07:07:58Z,42.805,6.029,13.3052,4.60178,2471.043,2024-4-05T09:10:38Z
2024-04-05T07:11:02Z,42.805,6.029,13.3052,4.60178,2471.02,2024-4-05T09:13:41Z
2024-04-05T07:14:05Z,42.805,6.029,13.3056,4.60170,2471.034,2024-4-05T09:16:44Z
2024-04-05T07:17:08Z,42.805,6.029,13.3056,4.60150,2471.02,2024-4-05T09:19:47Z
2024-04-05T07:20:11Z,42.805,6.029,13.3053,4.60169,2471.043,2024-4-05T09:22:50Z
2024-04-05T07:23:14Z,42.805,6.029,13.3053,4.60160,2471.034,2024-4-05T09:25:53Z
2024-04-05T07:26:17Z,42.805,6.029,13.3060,4.60173,2471.057,2024-4-05T09:28:56Z
2024-04-05T07:29:20Z,42.805,6.029,13.3059,4.60162,2471.01,2024-4-05T09:31:59Z
2024-04-05T07:32:23Z,42.805,6.029,13.3046,4.60155,2470.997,2024-4-05T09:35:02Z
2024-04-05T07:35:26Z,42.805,6.029,13.3048,4.60160,2471.02,2024-4-05T09:38:05Z
2024-04-05T07:38:29Z,42.805,6.029,13.3052,4.60156,2471.043,2024-4-05T09:41:08Z
2024-04-05T07:41:32Z,42.805,6.029,13.3047,4.60157,2470.997,2024-4-05T09:44:12Z
2024-04-05T07:44:35Z,42.805,6.029,13.3055,4.60157,2470.997,2024-4-05T09:47:15Z
2024-04-05T07:47:38Z,42.805,6.029,13.3051,4.60155,2470.997,2024-4-05T09:50:18Z
2024-04-05T07:50:42Z,42.805,6.029,13.3051,4.60171,2470.973,2024-4-05T09:53:21Z
2024-04-05T07:53:45Z,42.805,6.029,13.3050,4.60162,2470.987,2024-4-05T09:56:24Z
2024-04-05T07:56:48Z,42.805,6.029,13.3050,4.60167,2471.02,2024-4-05T09:59:27Z
2024-04-05T07:59:51Z,42.805,6.029,13.3049,4.60164,2471.02,2024-4-05T10:02:30Z
2024-04-05T08:02:54Z,42.805,6.029,13.3050,4.60155,2471.01,2024-4-05T10:05:33Z
2024-04-05T08:05:57Z,42.805,6.029,13.3051,4.60155,2470.997,2024-4-05T10:08:36Z
2024-04-05T08:09:00Z,42.805,6.029,13.3050,4.60150,2470.997,2024-4-05T10:11:39Z
2024-04-05T08:12:03Z,42.805,6.029,13.3054,4.60167,2470.973,2024-4-05T10:14:42Z
2024-04-05T08:15:06Z,42.805,6.029,13.3051,4.60160,2470.997,2024-4-05T10:17:45Z
2024-04-05T08:18:09Z,42.805,6.029,13.3052,4.60150,2470.997,2024-4-05T10:20:49Z
2024-04-05T08:21:12Z,42.805,6.029,13.3046,4.60154,2471.01,2024-4-05T10:23:52Z
2024-04-05T08:24:15Z,42.805,6.029,13.3048,4.60159,2470.964,2024-4-05T10:26:55Z
2024-04-05T08:27:19Z,42.805,6.029,13.3056,4.60170,2470.973,2024-4-05T10:29:58Z
2024-04-05T08:30:22Z,42.805,6.029,13.3051,4.60152,2470.997,2024-4-05T10:33:01Z
2024-04-05T08:33:25Z,42.805,6.029,13.3055,4.60157,2470.997,2024-4-05T10:36:04Z
2024-04-05T08:36:28Z,42.805,6.029,13.3048,4.60169,2470.997,2024-4-05T10:39:07Z
2024-04-05T08:39:31Z,42.805,6.029,13.3049,4.60162,2470.973,2024-4-05T10:42:10Z
2024-04-05T08:42:34Z,42.805,6.029,13.3052,4.60165,2470.997,2024-4-05T10:45:13Z
2024-04-05T08:45:37Z,42.805,6.029,13.3048,4.60148,2470.987,2024-4-05T10:48:16Z
2024-04-05T08:48:40Z,42.805,6.029,13.3053,4.60154,2470.973,2024-4-05T10:51:19Z
2024-04-05T08:51:43Z,42.805,6.029,13.3048,4.60170,2470.987,2024-4-05T10:54:22Z
2024-04-05T08:54:46Z,42.805,6.029,13.3047,4.60158,2470.95,2024-4-05T10:57:26Z
2024-04-05T08:57:49Z,42.805,6.029,13.3051,4.60157,2470.95,2024-4-05T11:00:29Z
2024-04-05T09:00:52Z,42.805,6.029,13.3053,4.60160,2470.95,2024-4-05T11:03:32Z
2024-04-05T09:03:55Z,42.805,6.029,13.3055,4.60160,2470.94,2024-4-05T11:06:35Z
2024-04-05T09:06:59Z,42.805,6.029,13.3054,4.60150,2470.973,2024-4-05T11:09:38Z
2024-04-05T09:10:02Z,42.805,6.029,13.3052,4.60147,2470.964,2024-4-05T11:12:41Z
2024-04-05T09:13:05Z,42.805,6.029,13.3050,4.60152,2470.987,2024-4-05T11:15:44Z
2024-04-05T09:16:08Z,42.805,6.029,13.3052,4.60155,2470.95,2024-4-05T11:18:47Z
2024-04-05T09:19:11Z,42.805,6.029,13.3048,4.60152,2470.95,2024-4-05T11:21:50Z
2024-04-05T09:22:14Z,42.805,6.029,13.3049,4.60160,2470.95,2024-4-05T11:24:53Z
2024-04-05T09:25:17Z,42.805,6.029,13.3048,4.60158,2470.927,2024-4-05T11:27:56Z
2024-04-05T09:28:20Z,42.805,6.029,13.3051,4.60161,2470.94,2024-4-05T11:30:59Z
2024-04-05T09:31:23Z,42.805,6.029,13.3045,4.60144,2470.973,2024-4-05T11:34:02Z
2024-04-05T09:34:26Z,42.805,6.029,13.3048,4.60147,2470.987,2024-4-05T11:37:05Z
2024-04-05T09:37:29Z,42.805,6.029,13.3056,4.60154,2470.964,2024-4-05T11:40:09Z
2024-04-05T09:40:32Z,42.805,6.029,13.3051,4.60154,2470.95,2024-4-05T11:43:12Z
2024-04-05T09:43:36Z,42.805,6.029,13.3048,4.60154,2470.964,2024-4-05T11:46:15Z
2024-04-05T09:46:39Z,42.805,6.029,13.3047,4.60152,2470.95,2024-4-05T11:49:18Z
2024-04-05T09:49:42Z,42.805,6.029,13.3043,4.60153,2470.964,2024-4-05T11:52:21Z
2024-04-05T09:52:45Z,42.805,6.029,13.3050,4.60162,2470.964,2024-4-05T11:55:24Z
2024-04-05T09:55:48Z,42.805,6.029,13.3057,4.60156,2470.94,2024-4-05T11:58:27Z
2024-04-05T09:58:51Z,42.805,6.029,13.3048,4.60147,2470.917,2024-4-05T12:01:30Z
2024-04-05T10:01:54Z,42.805,6.029,13.3050,4.60158,2470.94,2024-4-05T12:04:33Z
2024-04-05T10:04:57Z,42.805,6.029,13.3046,4.60156,2470.95,2024-4-05T12:07:36Z
2024-04-05T10:08:00Z,42.805,6.029,13.3050,4.60159,2470.95,2024-4-05T12:10:39Z
2024-04-05T10:11:03Z,42.805,6.029,13.3046,4.60150,2470.927,2024-4-05T12:13:43Z
2024-04-05T10:14:06Z,42.805,6.029,13.3048,4.60152,2470.94,2024-4-05T12:16:46Z
2024-04-05T10:17:09Z,42.805,6.029,13.3043,4.60157,2470.894,2024-4-05T12:19:49Z
2024-04-05T10:20:12Z,42.805,6.029,13.3052,4.60152,2470.88,2024-4-05T12:22:52Z
2024-04-05T10:23:16Z,42.805,6.029,13.3053,4.60157,2470.917,2024-4-05T12:25:55Z
2024-04-05T10:26:19Z,42.805,6.029,13.3054,4.60150,2470.88,2024-4-05T12:28:58Z
2024-04-05T10:29:22Z,42.805,6.029,13.3047,4.60148,2470.904,2024-4-05T12:32:01Z
2024-04-05T10:32:25Z,42.805,6.029,13.3055,4.60149,2470.894,2024-4-05T12:35:04Z
2024-04-05T10:35:28Z,42.805,6.029,13.3049,4.60151,2470.894,2024-4-05T12:38:07Z
2024-04-05T10:38:31Z,42.805,6.029,13.3054,4.60154,2470.88,2024-4-05T12:41:10Z
2024-04-05T10:41:34Z,42.805,6.029,13.3048,4.60152,2470.904,2024-4-05T12:44:13Z
2024-04-05T10:44:37Z,42.805,6.029,13.3051,4.60152,2470.917,2024-4-05T12:47:16Z
2024-04-05T10:47:40Z,42.805,6.029,13.3060,4.60148,2470.88,2024-4-05T12:50:19Z
2024-04-05T10:50:43Z,42.805,6.029,13.3053,4.60163,2470.894,2024-4-05T12:53:23Z
2024-04-05T10:53:46Z,42.805,6.029,13.3056,4.60160,2470.904,2024-4-05T12:56:26Z
2024-04-05T10:56:49Z,42.805,6.029,13.3056,4.60158,2470.927,2024-4-05T12:59:29Z
2024-04-05T10:59:53Z,42.805,6.029,13.3054,4.60164,2470.894,2024-4-05T13:02:32Z
2024-04-05T11:02:56Z,42.805,6.029,13.3061,4.60172,2470.917,2024-4-05T13:05:35Z
2024-04-05T11:05:59Z,42.805,6.029,13.3054,4.60162,2470.88,2024-4-05T13:08:38Z
2024-04-05T11:09:02Z,42.805,6.029,13.3060,4.60165,2470.857,2024-4-05T13:11:41Z
2024-04-05T11:12:05Z,42.805,6.029,13.3063,4.60162,2470.857,2024-4-05T13:14:44Z
2024-04-05T11:15:08Z,42.805,6.029,13.3058,4.60154,2470.857,2024-4-05T13:17:47Z
2024-04-05T11:18:11Z,42.805,6.029,13.3056,4.60160,2470.904,2024-4-05T13:20:50Z
2024-04-05T11:21:14Z,42.805,6.029,13.3061,4.60160,2470.857,2024-4-05T13:23:53Z
2024-04-05T11:24:17Z,42.805,6.029,13.3055,4.60155,2470.894,2024-4-05T13:26:56Z
2024-04-05T11:27:20Z,42.805,6.029,13.3063,4.60168,2470.871,2024-4-05T13:30:00Z
2024-04-05T11:30:23Z,42.805,6.029,13.3063,4.60170,2470.88,2024-4-05T13:33:03Z
2024-04-05T11:33:26Z,42.805,6.029,13.3058,4.60157,2470.857,2024-4-05T13:36:06Z
2024-04-05T11:36:30Z,42.805,6.029,13.3069,4.60183,2470.871,2024-4-05T13:39:09Z
2024-04-05T11:39:33Z,42.805,6.029,13.3063,4.60164,2470.871,2024-4-05T13:42:12Z
2024-04-05T11:42:36Z,42.805,6.029,13.3057,4.60174,2470.871,2024-4-05T13:45:15Z
2024-04-05T11:45:39Z,42.805,6.029,13.3056,4.60161,2470.88,2024-4-05T13:48:18Z
2024-04-05T11:48:42Z,42.805,6.029,13.3059,4.60163,2470.88,2024-4-05T13:51:21Z
2024-04-05T11:51:45Z,42.805,6.029,13.3063,4.60182,2470.871,2024-4-05T13:54:24Z
2024-04-05T11:54:48Z,42.805,6.029,13.3058,4.60166,2470.871,2024-4-05T13:57:27Z
2024-04-05T11:57:51Z,42.805,6.029,13.3061,4.60178,2470.88,2024-4-05T14:00:30Z
2024-04-05T12:00:54Z,42.805,6.029,13.3063,4.60160,2470.833,2024-4-05T14:03:33Z
2024-04-05T12:03:57Z,42.805,6.029,13.3059,4.60180,2470.871,2024-4-05T14:06:36Z
2024-04-05T12:07:00Z,42.805,6.029,13.3065,4.60170,2470.857,2024-4-05T14:09:40Z
2024-04-05T12:10:03Z,42.805,6.029,13.3063,4.60182,2470.894,2024-4-05T14:12:43Z
2024-04-05T12:13:06Z,42.805,6.029,13.3063,4.60177,2470.857,2024-4-05T14:15:46Z
2024-04-05T12:16:10Z,42.805,6.029,13.3063,4.60165,2470.904,2024-4-05T14:18:49Z
2024-04-05T12:19:13Z,42.805,6.029,13.3063,4.60179,2470.847,2024-4-05T14:21:52Z
2024-04-05T12:22:16Z,42.805,6.029,13.3061,4.60181,2470.871,2024-4-05T14:24:55Z
2024-04-05T12:25:19Z,42.805,6.029,13.3067,4.60165,2470.904,2024-4-05T14:27:58Z
2024-04-05T12:28:22Z,42.805,6.029,13.3059,4.60162,2470.871,2024-4-05T14:31:01Z
2024-04-05T12:31:25Z,42.805,6.029,13.3067,4.60176,2470.917,2024-4-05T14:34:04Z
2024-04-05T12:34:28Z,42.805,6.029,13.3058,4.60170,2470.857,2024-4-05T14:37:07Z
2024-04-05T12:37:31Z,42.805,6.029,13.3063,4.60179,2470.88,2024-4-05T14:40:10Z
2024-04-05T12:40:34Z,42.805,6.029,13.3055,4.60164,2470.857,2024-4-05T14:43:13Z
2024-04-05T12:43:37Z,42.805,6.029,13.3061,4.60170,2470.88,2024-4-05T14:46:17Z
2024-04-05T12:46:40Z,42.805,6.029,13.3062,4.60178,2470.88,2024-4-05T14:49:20Z
2024-04-05T12:49:43Z,42.805,6.029,13.3061,4.60185,2470.904,2024-4-05T14:52:23Z
2024-04-05T12:52:47Z,42.805,6.029,13.3067,4.60186,2470.894,2024-4-05T14:55:26Z
2024-04-05T12:55:50Z,42.805,6.029,13.3063,4.60170,2470.857,2024-4-05T14:58:29Z
2024-04-05T12:58:53Z,42.805,6.029,13.3062,4.60165,2470.88,2024-4-05T15:01:32Z
2024-04-05T13:01:56Z,42.805,6.029,13.3061,4.60179,2470.866,2024-4-05T15:04:35Z
2024-04-05T13:04:59Z,42.805,6.029,13.3064,4.60170,2470.894,2024-4-05T15:07:38Z
2024-04-05T13:08:02Z,42.805,6.029,13.3062,4.60170,2470.88,2024-4-05T15:10:41Z
2024-04-05T13:11:05Z,42.805,6.029,13.3062,4.60175,2470.857,2024-4-05T15:13:44Z
2024-04-05T13:14:08Z,42.805,6.029,13.3063,4.60167,2470.88,2024-4-05T15:16:47Z
2024-04-05T13:17:11Z,42.805,6.029,13.3063,4.60173,2470.894,2024-4-05T15:19:50Z
2024-04-05T13:20:14Z,42.805,6.029,13.3063,4.60186,2470.857,2024-4-05T15:22:54Z
2024-04-05T13:23:17Z,42.805,6.029,13.3069,4.60181,2470.88,2024-4-05T15:25:57Z
2024-04-05T13:26:20Z,42.805,6.029,13.3063,4.60178,2470.917,2024-4-05T15:29:00Z
2024-04-05T13:29:24Z,42.805,6.029,13.3067,4.60185,2470.88,2024-4-05T15:32:03Z
2024-04-05T13:32:27Z,42.805,6.029,13.3061,4.60173,2470.871,2024-4-05T15:35:06Z
2024-04-05T13:35:30Z,42.805,6.029,13.3056,4.60179,2470.88,2024-4-05T15:38:09Z
2024-04-05T13:38:33Z,42.805,6.029,13.3056,4.60172,2470.904,2024-4-05T15:41:12Z
2024-04-05T13:41:36Z,42.805,6.029,13.3058,4.60170,2470.857,2024-4-05T15:44:15Z
2024-04-05T13:44:39Z,42.805,6.029,13.3059,4.60173,2470.88,2024-4-05T15:47:18Z
2024-04-05T13:47:42Z,42.805,6.029,13.3061,4.60178,2470.866,2024-4-05T15:50:21Z
2024-04-05T13:50:45Z,42.805,6.029,13.3058,4.60161,2470.88,2024-4-05T15:53:24Z
2024-04-05T13:53:48Z,42.805,6.029,13.3061,4.60183,2470.917,2024-4-05T15:56:27Z
2024-04-05T13:56:51Z,42.805,6.029,13.3062,4.60183,2470.88,2024-4-05T15:59:31Z
2024-04-05T13:59:54Z,42.805,6.029,13.3065,4.60168,2470.917,2024-4-05T16:02:34Z
2024-04-05T14:02:57Z,42.805,6.029,13.3061,4.60160,2470.917,2024-4-05T16:05:37Z
2024-04-05T14:06:01Z,42.805,6.029,13.3061,4.60170,2470.917,2024-4-05T16:08:40Z
2024-04-05T14:09:04Z,42.805,6.029,13.3062,4.60180,2470.927,2024-4-05T16:11:43Z
2024-04-05T14:12:07Z,42.805,6.029,13.3063,4.60167,2470.917,2024-4-05T16:14:46Z
2024-04-05T14:15:10Z,42.805,6.029,13.3061,4.60178,2470.904,2024-4-05T16:17:49Z
2024-04-05T14:18:13Z,42.805,6.029,13.3058,4.60186,2470.917,2024-4-05T16:20:52Z
2024-04-05T14:21:16Z,42.805,6.029,13.3067,4.60191,2470.904,2024-4-05T16:23:55Z
2024-04-05T14:24:19Z,42.805,6.029,13.3064,4.60167,2470.894,2024-4-05T16:26:58Z
2024-04-05T14:27:22Z,42.805,6.029,13.3061,4.60175,2470.904,2024-4-05T16:30:01Z
2024-04-05T14:30:25Z,42.805,6.029,13.3052,4.60161,2470.894,2024-4-05T16:33:04Z
2024-04-05T14:33:28Z,42.805,6.029,13.3063,4.60167,2470.917,2024-4-05T16:36:08Z
2024-04-05T14:36:31Z,42.805,6.029,13.3060,4.60176,2470.904,2024-4-05T16:39:11Z
2024-04-05T14:39:34Z,42.805,6.029,13.3059,4.60172,2470.904,2024-4-05T16:42:14Z
2024-04-05T14:42:37Z,42.805,6.029,13.3057,4.60172,2470.904,2024-4-05T16:45:17Z
2024-04-05T14:45:41Z,42.805,6.029,13.3060,4.60172,2470.927,2024-4-05T16:48:20Z
2024-04-05T14:48:44Z,42.805,6.029,13.3061,4.60170,2470.94,2024-4-05T16:51:23Z
2024-04-05T14:51:47Z,42.805,6.029,13.3058,4.60169,2470.917,2024-4-05T16:54:26Z
2024-04-05T14:54:50Z,42.805,6.029,13.3065,4.60175,2470.89,2024-4-05T16:57:29Z
2024-04-05T14:57:53Z,42.805,6.029,13.3060,4.60174,2470.987,2024-4-05T17:00:32Z
2024-04-05T15:00:56Z,42.805,6.029,13.3056,4.60168,2470.94,2024-4-05T17:03:35Z
2024-04-05T15:03:59Z,42.805,6.029,13.3066,4.60170,2470.94,2024-4-05T17:06:38Z
2024-04-05T15:07:02Z,42.805,6.029,13.3056,4.60168,2470.927,2024-4-05T17:09:41Z
2024-04-05T15:10:05Z,42.805,6.029,13.3063,4.60173,2470.94,2024-4-05T17:12:44Z